Regional Weather Roundup
Issued by NWS

Home | Current Version | Previous Version | Text Only | Print | Product List | Glossary On
Versions: 1 2 3 4 5 6 7 8 9 10 11 12 13 14 15 16 17 18 19 20 21 22 23 24 25 26 27 28 29 30 31 32 33 34 35 36 37 38 39 40 41 42 43 44 45 46 47 48 49 50
612
ASUS44 KLIX 221313
RWRLA
LOUISIANA WEATHER ROUNDUP
NATIONAL WEATHER SERVICE NEW ORLEANS LA
800 AM CDT TUE AUG 22 2017

NOTE: "FAIR" INDICATES FEW OR NO CLOUDS BELOW 12,000 FEET WITH NO
      SIGNIFICANT WEATHER AND/OR OBSTRUCTIONS TO VISIBILITY.
      SKY/WX - SKY CONDITION AND SIGNIFICANT WEATHER.
      TMP - AIR TEMPERATURE.    DP   - DEWPOINT TEMPERATURE.
      RH  - RELATIVE HUMIDITY.  PRES - PRESSURE.
      HX  - HEAT INDEX.         WCI  - WIND CHILL INDEX.

*  THESE STATIONS ARE NOT NWS OR FAA STATIONS AND ARE NOT UNDER
   NWS QUALITY CONTROL.

LAZ040-048-061>063-065-066-069-221400-
SOUTHEAST LOUISIANA

CITY           SKY/WX    TMP DP  RH WIND       PRES   REMARKS
N.O. INTL ARPT MOSUNNY   83  77  82 CALM      30.07R
N.O. LAKEFRONT MOSUNNY   84  77  79 NE7       30.07R
N.O. DOWNTOWN* FAIR      84  78  82 NE6       30.08R HX  95
RESERVE*       FAIR      82  80  92 CALM      30.07R
SLIDELL        SUNNY     76  74  93 N3        30.07R
BATON ROUGE    SUNNY     76  73  91 NE6       30.07R
BOOTHVILLE     MOSUNNY   85  78  80 N5        30.07R HX  96
BELLE CHASSE   NOT AVBL
BOGALUSA*      FAIR      76  73  90 CALM      30.10R
GALLIANO*      SUNNY     83  77  83 CALM      30.06R
NEW ROADS*     FAIR      75  73  92 CALM      30.07S
GONZALES*      FAIR      77  75  93 CALM      30.06R
HAMMOND*       SUNNY     75  72  88 CALM      30.08R
HOUMA*         MOSUNNY   81  79  94 NE7       30.07R
PORT FOURCHON* SUNNY     84  77  79 NE7       30.05R

$$

LAZ041-044-053-054-221400-
SOUTHWEST LOUISIANA

CITY           SKY/WX    TMP DP  RH WIND       PRES   REMARKS
LAKE CHARLES   SUNNY     79  75  87 NE3       30.05R
LAFAYETTE      SUNNY     78  76  93 CALM      30.06R
PATTERSON      SUNNY     78  77  96 E5        30.07R
SALT POINT       N/A     79  77  94 CALM      30.04R
NEW IBERIA     SUNNY     78  73  84 CALM      30.06S
CHENAULT AIRPK NOT AVBL

$$

LAZ027-028-221400-
CENTRAL LOUISIANA

CITY           SKY/WX    TMP DP  RH WIND       PRES   REMARKS
FORT POLK      SUNNY     77  73  88 CALM      30.07R
ALEXANDRIA INT SUNNY     76  73  91 SE3       30.06R
ALEXANDRIA     SUNNY     75  74  96 CALM      30.08R

$$

LAZ001-002-221400-
NORTHWEST LOUISIANA

CITY           SKY/WX    TMP DP  RH WIND       PRES   REMARKS
SHREVEPORT     SUNNY     77  76  96 CALM      30.06R
BARKSDALE AFB  SUNNY     76  76 100 CALM      30.06R
DTN SHREVEPORT SUNNY     80  74  81 CALM      30.06R

$$

LAZ014-016-221400-
NORTHEAST LOUISIANA

CITY           SKY/WX    TMP DP  RH WIND       PRES   REMARKS
MONROE         SUNNY     75  72  90 S5        30.07R
TALLULAH       NOT AVBL

$$





USA.gov is the U.S. government's official web portal to all federal, state and local government web resources and services.